[[[{"header":{"parameterUnit":"kt","parameterCategory":2,"dx":1,"dy":1,"la1":30.253999710083008,"la2":30.299108505249023,"lo1":-89.0895004272461,"lo2":-89.04439544677734,"nx":28,"ny":28,"refTime":"2022-10-22T21:00:00:Z","depth":"0","parameterNumber":2,"parameterNumberName":"U-component_of_CURRENTS"},"data":[-0.2673,-0.2583,-0.2564,-0.2331,-0.2252,-0.2094,-0.2054,-0.203,-0.2037,-0.1967,-0.1937,-0.1923,-0.2011,-0.2268,-0.2245,-0.2155,-0.2129,-0.204,-0.2074,-0.2228,-0.2252,-0.2274,-0.2243,-0.2051,-0.2051,-0.1883,-0.1882,-0.1881,-0.2772,-0.2755,-0.2698,-0.2602,-0.2498,-0.2558,-0.2558,-0.2482,-0.2472,-0.2548,-0.2553,-0.2487,-0.2382,-0.2368,-0.229,-0.2204,-0.2165,-0.2167,-0.2194,-0.2154,-0.2289,-0.2249,-0.2055,-0.2055,-0.2055,-0.2055,-0.2055,-0.2055,-0.292,-0.2904,-0.2867,-0.2806,-0.278,-0.2751,-0.2689,-0.2745,-0.2788,-0.2823,-0.2962,-0.289,-0.2845,-0.2614,-0.255,-0.2429,-0.2457,-0.2372,-0.2403,-0.2421,-0.2323,-0.244,-0.2309,-0.2311,-0.2312,-0.2313,-0.2314,0,-0.3008,-0.3006,-0.3001,-0.2963,-0.2934,-0.2927,-0.293,-0.2963,-0.3067,-0.3131,-0.3193,-0.3186,-0.3104,-0.2938,-0.2785,-0.2697,-0.2695,-0.2675,-0.2715,-0.256,-0.2538,-0.2453,-0.2648,-0.2581,-0.2584,-0.2587,-0.2588,-0.2589,-0.3035,-0.3048,-0.3072,-0.304,-0.3056,-0.3054,-0.3048,-0.3135,-0.3153,-0.3278,-0.3291,-0.3303,-0.3265,-0.3145,-0.3026,-0.29,-0.2901,-0.275,-0.2732,-0.2737,-0.2733,-0.2742,-0.2687,-0.2622,-0.2618,-0.2614,-0.2612,0,-0.3037,-0.3078,-0.3092,-0.3136,-0.3147,-0.3142,-0.317,-0.317,-0.3252,-0.3295,-0.331,-0.3381,-0.333,-0.3284,-0.3215,-0.3144,-0.3009,-0.3007,-0.2905,-0.2859,-0.275,-0.2767,-0.2719,-0.2648,-0.2884,-0.2882,-0.288,0,-0.3056,-0.3077,-0.3112,-0.3139,-0.3161,-0.3186,-0.3204,-0.3241,-0.3291,-0.3319,-0.3362,-0.338,-0.335,-0.3313,-0.3246,-0.313,-0.3186,-0.3045,-0.3012,-0.293,-0.2913,-0.2894,-0.2905,-0.3144,-0.3144,-0.3144,-0.3144,0,-0.3034,-0.3092,-0.3134,-0.3159,-0.3215,-0.3217,-0.3235,-0.3273,-0.3294,-0.3336,-0.3355,-0.3359,-0.334,-0.3305,-0.3216,-0.3214,-0.3166,-0.3153,-0.3028,-0.302,-0.2905,-0.2884,-0.2923,-0.3145,-0.3145,-0.3145,-0.3145,0,-0.3059,-0.3095,-0.3146,-0.3179,-0.3187,-0.3212,-0.3248,-0.3277,-0.3307,-0.331,-0.3318,-0.3296,-0.3294,-0.3249,-0.321,-0.3203,-0.3154,-0.312,-0.3117,-0.2994,-0.2933,-0.2828,-0.2837,-0.2851,-0.3063,-0.3063,-0.3063,0,-0.3055,-0.3098,-0.3123,-0.3161,-0.3177,-0.3193,-0.3232,-0.3238,-0.3244,-0.3251,-0.3231,-0.3225,-0.318,-0.3159,-0.3161,-0.3101,-0.3108,-0.3103,-0.3032,-0.303,-0.294,-0.2975,-0.2873,-0.284,-0.3058,-0.3059,-0.3059,0,-0.3032,-0.3071,-0.3076,-0.3084,-0.313,-0.3118,-0.3165,-0.3175,-0.319,-0.317,-0.3184,-0.3166,-0.3125,-0.3114,-0.3074,-0.3077,-0.3096,-0.3025,-0.3023,-0.3021,-0.3083,-0.298,-0.2973,-0.3072,-0.3073,-0.3074,-0.3055,0,-0.3044,-0.3058,-0.3063,-0.3084,-0.3087,-0.3101,-0.3098,-0.3094,-0.3083,-0.307,-0.3066,-0.3022,-0.2999,-0.2998,-0.2964,-0.2993,-0.2962,-0.2936,-0.291,-0.2955,-0.2938,-0.2941,-0.288,-0.2878,-0.2877,-0.2876,0,0,-0.3027,-0.3033,-0.3006,-0.3022,-0.3031,-0.3001,-0.3019,-0.3014,-0.2975,-0.2966,-0.2946,-0.2912,-0.2884,-0.2903,-0.291,-0.2888,-0.287,-0.2889,-0.2928,-0.2935,-0.294,-0.2927,-0.2931,-0.2873,-0.2873,-0.2872,-0.2872,0,-0.302,-0.3012,-0.3012,-0.301,-0.2988,-0.2978,-0.2983,-0.2944,-0.2934,-0.2928,-0.2891,-0.2876,-0.2848,-0.2837,-0.2832,-0.2867,-0.2834,-0.286,-0.2919,-0.2917,-0.2925,-0.2932,-0.2921,-0.2926,-0.2869,-0.2869,-0.2869,0,-0.3013,-0.3001,-0.2993,-0.2972,-0.2944,-0.2955,-0.2908,-0.2893,-0.2908,-0.2841,-0.2845,-0.2809,-0.2781,-0.2783,-0.2782,-0.2768,-0.2798,-0.2784,-0.279,-0.2797,-0.2793,-0.2802,-0.281,-0.2706,-0.2706,-0.2705,0,0,-0.3012,-0.3007,-0.2974,-0.2965,-0.2957,-0.2916,-0.2903,-0.2884,-0.2854,-0.2843,-0.2813,-0.2789,-0.2777,-0.2772,-0.2747,-0.2749,-0.273,-0.2767,-0.2775,-0.2781,-0.2792,-0.279,-0.2799,-0.2705,-0.2705,-0.2705,0,0,-0.3001,-0.2971,-0.2954,-0.2951,-0.2923,-0.2875,-0.287,-0.2853,-0.2828,-0.2826,-0.2787,-0.2779,-0.2778,-0.2752,-0.2744,-0.2755,-0.2719,-0.2719,-0.2783,-0.2792,-0.28,-0.2819,-0.2715,0,0,0,0,0,-0.2967,-0.2976,-0.2961,-0.2955,-0.2908,-0.2881,-0.2873,-0.2843,-0.2835,-0.2835,-0.2805,-0.2788,-0.2741,-0.2733,-0.2725,-0.2758,-0.2694,-0.2696,-0.2698,-0.2779,-0.2788,-0.2797,0,0,0,0,0,0,-0.2964,-0.2957,-0.296,-0.2915,-0.2903,-0.288,-0.2854,-0.2845,-0.2834,-0.2832,-0.2792,-0.2786,-0.2756,-0.2735,-0.2728,-0.2761,-0.2717,-0.2695,-0.2696,-0.2698,-0.2782,-0.279,-0.2797,0,0,0,0,0,-0.2962,-0.2956,-0.2893,-0.2914,-0.2904,-0.2863,-0.2854,-0.2847,-0.2838,-0.2794,-0.2787,-0.2819,-0.2756,-0.2749,-0.2731,-0.2765,-0.2721,-0.2719,-0.2696,-0.2697,-0.2698,-0.2786,0,0,0,0,0,0,-0.296,-0.2942,-0.289,-0.2885,-0.2918,-0.2864,-0.2856,-0.2848,-0.28,-0.2793,-0.2818,-0.2817,-0.2756,-0.2751,-0.2746,-0.2769,-0.2725,-0.2722,-0.2721,-0.2697,-0.2698,-0.2699,0,0,0,0,0,0,-0.2945,-0.2939,-0.2887,-0.2895,-0.289,-0.2865,-0.2858,-0.2834,-0.28,-0.2827,-0.2824,-0.2818,-0.2771,-0.2752,-0.2748,-0.2711,-0.2727,-0.2725,-0.2724,-0.2723,-0.2697,-0.2698,0,0,0,0,0,0,-0.2941,-0.2936,-0.2896,-0.2892,-0.2888,-0.2831,-0.2843,-0.28,-0.2798,-0.283,-0.2798,-0.2799,-0.2773,-0.2768,-0.275,-0.2714,-0.2712,-0.2727,-0.2726,-0.2725,-0.2724,0,0,0,0,0,0,0,-0.2938,-0.2988,-0.2921,-0.289,-0.2887,-0.2842,-0.2841,-0.2839,-0.2798,-0.2798,-0.2798,-0.2798,-0.274,-0.2738,-0.2735,-0.2717,0,0,-0.2728,-0.2727,0,0,0,0,0,0,0,0,-0.2989,-0.2988,-0.292,-0.292,-0.2919,-0.2842,-0.2841,-0.2839,-0.2798,-0.2798,-0.2798,-0.2798,-0.2739,-0.2738,-0.2736,0,0,0,0,0,0,0,0,0,0,0,0,0,0,0,-0.292,-0.292,0,-0.2842,-0.2841,-0.284,-0.2798,-0.2798,-0.2798,-0.2798,-0.2739,-0.2737,-0.2736,0,0,0,0,0,0,0,0,0,0,0,0,0,0,0,0,0,0,0,0,0,0,0,0,0,0,0,0,0,0,0,0,0,0,0,0,0,0,0,0,0,0,0,0,0,0,0,0,0,0,0,0,0,0,0,0,0,0,0,0,0,0,0,0,0,0,0,0,0]}],[{"header":{"parameterUnit":"kt","parameterCategory":2,"dx":1,"dy":1,"la1":30.253999710083008,"la2":30.299108505249023,"lo1":-89.0895004272461,"lo2":-89.04439544677734,"nx":28,"ny":28,"refTime":"2022-10-22T21:00:00:Z","depth":"0","parameterNumber":3,"parameterNumberName":"V-component_of_CURRENTS"},"data":[-0.0676,-0.0893,-0.101,-0.1261,-0.1378,-0.146,-0.1461,-0.1302,-0.1021,-0.0347,0.0252,0.0732,0.1506,0.2428,0.2967,0.2968,0.3127,0.3061,0.3128,0.2839,0.2785,0.2733,0.2773,0.3254,0.3254,0.3615,0.3619,0.3622,-0.0603,-0.0755,-0.0949,-0.1178,-0.1299,-0.1304,-0.1325,-0.1273,-0.1125,-0.0744,-0.0418,0.0449,0.1051,0.1574,0.2182,0.2372,0.2365,0.2439,0.2484,0.2532,0.2057,0.2079,0.242,0.242,0.242,0.2419,0.2419,0.2419,-0.0496,-0.064,-0.0838,-0.1015,-0.1127,-0.1196,-0.1236,-0.1172,-0.1085,-0.0821,-0.0598,-0.0136,0.0495,0.1103,0.1277,0.1714,0.1593,0.1823,0.1863,0.1841,0.1959,0.1377,0.161,0.1609,0.1608,0.1607,0.1606,0,-0.0423,-0.0507,-0.0658,-0.0854,-0.0958,-0.1039,-0.1072,-0.1072,-0.0945,-0.0821,-0.0584,-0.0363,0.0109,0.0559,0.0943,0.1101,0.131,0.1223,0.1426,0.1644,0.1654,0.1773,0.1133,0.1324,0.1321,0.1319,0.1317,0.1316,-0.0319,-0.0421,-0.0617,-0.0713,-0.0772,-0.0852,-0.0884,-0.0823,-0.0805,-0.0608,-0.058,-0.0317,-0.0084,0.0339,0.0629,0.0931,0.1034,0.1144,0.1124,0.1315,0.1399,0.1393,0.1469,0.1282,0.1287,0.129,0.1293,0,-0.0274,-0.0334,-0.0502,-0.0604,-0.0626,-0.0704,-0.0722,-0.0727,-0.0626,-0.057,-0.0536,-0.031,-0.0066,0.0155,0.0412,0.0539,0.0879,0.0824,0.0887,0.0938,0.1257,0.1302,0.1563,0.1677,0.1014,0.1016,0.1019,0,-0.0187,-0.028,-0.037,-0.0449,-0.0557,-0.0549,-0.0598,-0.0562,-0.0483,-0.045,-0.0304,-0.0226,-0.0017,0.0147,0.0291,0.0528,0.051,0.0664,0.071,0.0778,0.0789,0.1017,0.1071,0.0626,0.0625,0.0624,0.0623,0,-0.0081,-0.0199,-0.0316,-0.0353,-0.0424,-0.0452,-0.0457,-0.039,-0.0376,-0.0272,-0.0229,-0.0104,-0.0031,0.0109,0.0291,0.0271,0.05,0.0498,0.0653,0.0659,0.0796,0.0811,0.1096,0.0622,0.0621,0.0621,0.0621,0,-0.0001,-0.0076,-0.0202,-0.0312,-0.0325,-0.0354,-0.0349,-0.0341,-0.0246,-0.0201,-0.0127,-0.005,0.0038,0.008,0.0254,0.0208,0.0304,0.0386,0.0394,0.0488,0.0521,0.0721,0.0802,0.1011,0.0489,0.0487,0.0486,0,0.0058,-0.0045,-0.0049,-0.0156,-0.0228,-0.0183,-0.0188,-0.0158,-0.0111,-0.0076,0.0009,0.0032,0.0075,0.0091,0.0157,0.0248,0.0309,0.024,0.0423,0.0428,0.0485,0.053,0.0629,0.0769,0.0467,0.0469,0.047,0,0.0116,0.0035,0.0028,-0.0044,-0.0039,-0.0045,-0.004,-0.0035,-0.0032,0.0016,0.0016,0.0058,0.0106,0.0122,0.0158,0.0216,0.028,0.025,0.0255,0.03,0.0424,0.0495,0.0515,0.031,0.0312,0.0314,0.0455,0,0.01,0.0048,0.005,0.0015,0.0023,0.001,0.003,0.0052,0.0067,0.0078,0.0106,0.0152,0.0173,0.0189,0.0197,0.0233,0.0255,0.0276,0.0298,0.03,0.0362,0.0373,0.025,0.0251,0.0252,0.0252,0,0,0.0127,0.008,0.0121,0.0099,0.0081,0.0135,0.0095,0.012,0.0131,0.0135,0.0149,0.0184,0.0214,0.0225,0.0214,0.0238,0.0281,0.0238,0.0292,0.0296,0.03,0.0359,0.037,0.0254,0.0254,0.0254,0.0255,0,0.0118,0.0131,0.0115,0.0116,0.013,0.0136,0.0141,0.0151,0.0155,0.0157,0.0164,0.0193,0.0219,0.0233,0.0243,0.0246,0.0297,0.0254,0.023,0.0297,0.03,0.0303,0.0361,0.037,0.0257,0.0257,0.0257,0,0.012,0.0119,0.0113,0.012,0.013,0.0116,0.0138,0.0162,0.0142,0.0176,0.0167,0.0194,0.0221,0.0235,0.025,0.0261,0.032,0.0289,0.0286,0.0284,0.0355,0.0358,0.036,0.0329,0.0329,0.0329,0,0,0.0115,0.0111,0.0111,0.0116,0.0124,0.0131,0.0145,0.0147,0.016,0.0167,0.0181,0.0202,0.0217,0.0235,0.0257,0.0286,0.033,0.0295,0.0292,0.0289,0.0285,0.0354,0.0357,0.0329,0.0329,0.0329,0,0,0.0114,0.0103,0.009,0.0095,0.0107,0.012,0.0142,0.014,0.0158,0.0158,0.0175,0.0183,0.0205,0.0235,0.0228,0.0263,0.0281,0.0284,0.0235,0.0231,0.0228,0.0213,0.0246,0,0,0,0,0,0.0092,0.0101,0.009,0.009,0.0095,0.0118,0.0123,0.0134,0.0128,0.0143,0.015,0.0171,0.0228,0.0221,0.0233,0.0234,0.0327,0.0327,0.0327,0.0272,0.0267,0.0264,0,0,0,0,0,0,0.0092,0.009,0.0091,0.0097,0.01,0.0117,0.0105,0.0108,0.0127,0.0127,0.0165,0.0172,0.0185,0.0218,0.0228,0.0228,0.0242,0.0327,0.0327,0.0327,0.027,0.0267,0.0264,0,0,0,0,0,0.0093,0.0091,0.0088,0.0099,0.0101,0.0119,0.0104,0.0107,0.0121,0.0152,0.0158,0.013,0.0185,0.0195,0.0224,0.0223,0.0236,0.0239,0.0327,0.0327,0.0327,0.0268,0,0,0,0,0,0,0.0093,0.0097,0.009,0.0093,0.0095,0.0119,0.0119,0.0106,0.0145,0.0151,0.0118,0.0118,0.0185,0.0193,0.02,0.0218,0.0231,0.0234,0.0236,0.0327,0.0327,0.0328,0,0,0,0,0,0,0.0098,0.0098,0.0091,0.0085,0.0087,0.0119,0.0119,0.0157,0.0147,0.0109,0.011,0.0118,0.0185,0.0191,0.0197,0.0255,0.0227,0.023,0.0232,0.0234,0.0327,0.0328,0,0,0,0,0,0,0.0099,0.0099,0.0084,0.0086,0.0087,0.0117,0.0155,0.0164,0.0123,0.0107,0.0122,0.0122,0.0184,0.019,0.0195,0.025,0.0254,0.0227,0.0229,0.0231,0.0232,0,0,0,0,0,0,0,0.01,0.0087,0.0077,0.0086,0.0088,0.0118,0.0119,0.0119,0.0123,0.0123,0.0122,0.0122,0.0207,0.0211,0.0215,0.0246,0,0,0.0226,0.0228,0,0,0,0,0,0,0,0,0.0089,0.0088,0.0077,0.0077,0.0078,0.0118,0.0119,0.0119,0.0123,0.0123,0.0122,0.0122,0.0208,0.0211,0.0214,0,0,0,0,0,0,0,0,0,0,0,0,0,0,0,0.0077,0.0077,0,0.0118,0.0119,0.0119,0.0123,0.0123,0.0122,0.0122,0.0209,0.0212,0.0214,0,0,0,0,0,0,0,0,0,0,0,0,0,0,0,0,0,0,0,0,0,0,0,0,0,0,0,0,0,0,0,0,0,0,0,0,0,0,0,0,0,0,0,0,0,0,0,0,0,0,0,0,0,0,0,0,0,0,0,0,0,0,0,0,0,0,0,0,0]}]],[[{"header":{"parameterUnit":"kt","parameterCategory":2,"dx":1,"dy":1,"la1":30.253999710083008,"la2":30.299108505249023,"lo1":-89.0895004272461,"lo2":-89.04439544677734,"nx":28,"ny":28,"refTime":"2022-10-22T21:00:00:Z","depth":"2","parameterNumber":2,"parameterNumberName":"U-component_of_CURRENTS"},"data":[-0.2462,-0.2375,-0.2367,-0.2151,-0.2096,-0.193,-0.1891,-0.1781,-0.1707,-0.152,-0.1402,-0.1485,-0.1587,-0.1261,-0.1249,-0.1105,-0.1279,-0.1052,-0.1635,-0.1643,-0.1683,-0.1847,-0.1761,0,0,0,0,0,-0.2585,-0.2589,-0.2536,-0.2438,-0.234,-0.241,-0.2412,-0.2294,-0.2253,-0.225,-0.2216,-0.1928,-0.1773,-0.1749,-0.1509,-0.1509,-0.1503,-0.1471,-0.1447,-0.1495,-0.1538,-0.145,-0.1067,-0.1065,-0.1064,-0.1062,0,0,-0.2758,-0.2747,-0.2703,-0.2651,-0.2627,-0.2599,-0.2536,-0.2574,-0.2611,-0.26,-0.276,-0.261,-0.2587,-0.2173,-0.2077,-0.1979,-0.2147,-0.205,-0.2067,-0.209,-0.2029,-0.1985,-0.18,-0.1803,-0.1806,-0.1809,-0.1811,0,-0.2844,-0.2847,-0.2842,-0.2804,-0.2771,-0.2768,-0.2773,-0.2806,-0.2913,-0.2972,-0.3031,-0.3021,-0.2918,-0.2664,-0.2506,-0.2411,-0.2464,-0.2347,-0.2765,-0.2252,-0.2211,-0.2182,-0.2203,-0.208,-0.2085,-0.2089,-0.2091,-0.2093,-0.2871,-0.2884,-0.2904,-0.2868,-0.2887,-0.2893,-0.289,-0.2975,-0.2996,-0.3122,-0.3134,-0.3148,-0.3107,-0.2991,-0.2848,-0.2718,-0.2819,-0.2462,-0.2423,-0.2779,-0.2749,-0.2752,-0.2753,-0.2146,-0.214,-0.2134,-0.213,0,-0.2872,-0.2911,-0.2923,-0.2965,-0.2977,-0.2978,-0.3003,-0.3008,-0.3093,-0.3137,-0.3154,-0.3225,-0.3176,-0.3132,-0.3064,-0.2996,-0.2914,-0.2862,-0.2619,-0.2558,-0.2772,-0.277,-0.2749,-0.2745,-0.2742,-0.274,-0.2737,0,-0.2889,-0.2914,-0.2952,-0.2975,-0.2999,-0.302,-0.3037,-0.3074,-0.3128,-0.3157,-0.3203,-0.3221,-0.3194,-0.3159,-0.3094,-0.2981,-0.3035,-0.2897,-0.2864,-0.2659,-0.2632,-0.293,-0.2923,-0.2994,-0.2994,-0.2994,-0.2994,0,-0.2879,-0.2931,-0.2972,-0.2994,-0.3044,-0.3045,-0.3061,-0.3104,-0.3125,-0.3172,-0.3193,-0.3199,-0.3183,-0.3149,-0.3064,-0.3062,-0.3016,-0.3001,-0.2879,-0.2872,-0.2636,-0.2605,-0.2994,-0.2994,-0.2994,-0.2994,-0.2994,0,-0.2908,-0.2946,-0.2994,-0.3006,-0.3015,-0.3038,-0.3076,-0.3104,-0.3138,-0.3143,-0.3155,-0.3135,-0.3136,-0.3092,-0.3056,-0.3049,-0.3002,-0.2968,-0.2966,-0.2845,-0.2783,-0.2551,-0.2531,-0.2913,-0.2913,-0.2912,-0.2912,0,-0.2905,-0.2948,-0.2967,-0.2995,-0.3006,-0.3021,-0.306,-0.3066,-0.3074,-0.3084,-0.3065,-0.3063,-0.3021,-0.3003,-0.3006,-0.2947,-0.2955,-0.2949,-0.2879,-0.2878,-0.2789,-0.2826,-0.2582,-0.2539,-0.2907,-0.2908,-0.2908,0,-0.288,-0.2911,-0.2916,-0.292,-0.2965,-0.295,-0.2997,-0.3006,-0.3024,-0.3004,-0.3019,-0.3004,-0.2967,-0.2958,-0.2919,-0.2923,-0.2943,-0.2872,-0.287,-0.287,-0.2931,-0.2831,-0.2824,-0.2919,-0.292,-0.2921,-0.2905,0,-0.2879,-0.289,-0.2896,-0.2924,-0.2925,-0.2935,-0.2932,-0.2929,-0.292,-0.2907,-0.2905,-0.2863,-0.2843,-0.2842,-0.281,-0.2839,-0.2809,-0.2782,-0.2756,-0.2802,-0.2785,-0.2789,-0.2726,-0.2724,-0.2723,-0.2722,0,0,-0.2857,-0.2866,-0.2847,-0.2864,-0.2871,-0.2844,-0.2859,-0.2854,-0.2813,-0.2805,-0.2787,-0.2757,-0.2729,-0.2749,-0.2758,-0.2734,-0.2717,-0.2736,-0.2775,-0.2781,-0.2786,-0.2774,-0.2779,-0.2719,-0.2719,-0.2718,-0.2718,0,-0.285,-0.2849,-0.2854,-0.2852,-0.2831,-0.282,-0.2825,-0.2785,-0.2775,-0.2769,-0.2736,-0.2723,-0.2694,-0.2684,-0.2679,-0.2713,-0.268,-0.2706,-0.2765,-0.2763,-0.2771,-0.2778,-0.2768,-0.2773,-0.2715,-0.2715,-0.2715,0,-0.2847,-0.2839,-0.2835,-0.2815,-0.2789,-0.2799,-0.2753,-0.2736,-0.2749,-0.2685,-0.2692,-0.2657,-0.263,-0.2631,-0.263,-0.2615,-0.2643,-0.2629,-0.2635,-0.2643,-0.2638,-0.2647,-0.2655,-0.2551,-0.2551,-0.255,0,0,-0.2848,-0.2851,-0.2816,-0.2808,-0.2802,-0.2761,-0.2747,-0.2727,-0.2697,-0.2688,-0.266,-0.2637,-0.2626,-0.262,-0.2596,-0.2595,-0.2576,-0.2613,-0.262,-0.2627,-0.2638,-0.2635,-0.2644,-0.2549,-0.2549,-0.2549,0,0,-0.2836,-0.2813,-0.28,-0.2798,-0.2768,-0.2716,-0.2712,-0.2696,-0.2673,-0.2675,-0.2637,-0.2629,-0.2628,-0.2601,-0.2593,-0.2602,-0.2566,-0.2567,-0.2631,-0.264,-0.2647,-0.2668,-0.2564,0,0,0,0,0,-0.2808,-0.2817,-0.2806,-0.28,-0.2754,-0.2721,-0.2713,-0.2685,-0.2682,-0.2681,-0.2655,-0.2637,-0.2591,-0.2583,-0.2575,-0.2606,-0.2539,-0.2541,-0.2542,-0.2624,-0.2634,-0.2642,0,0,0,0,0,0,-0.2805,-0.2799,-0.2805,-0.2757,-0.2746,-0.2721,-0.2699,-0.2691,-0.2682,-0.268,-0.2642,-0.2636,-0.2605,-0.2585,-0.2578,-0.261,-0.2566,-0.2539,-0.2541,-0.2542,-0.2627,-0.2635,-0.2642,0,0,0,0,0,-0.2803,-0.2798,-0.2737,-0.2756,-0.2746,-0.2707,-0.27,-0.2693,-0.2687,-0.2641,-0.2635,-0.267,-0.2606,-0.2598,-0.2581,-0.2614,-0.257,-0.2568,-0.254,-0.2542,-0.2543,-0.2631,0,0,0,0,0,0,-0.2801,-0.2784,-0.2734,-0.2729,-0.2762,-0.2708,-0.2701,-0.2695,-0.2649,-0.2642,-0.2667,-0.2666,-0.2605,-0.26,-0.2595,-0.2619,-0.2574,-0.2572,-0.257,-0.2541,-0.2542,-0.2543,0,0,0,0,0,0,-0.2787,-0.2781,-0.2731,-0.2741,-0.2737,-0.2709,-0.2703,-0.2676,-0.2649,-0.2677,-0.2674,-0.2667,-0.2619,-0.2601,-0.2597,-0.2555,-0.2577,-0.2575,-0.2573,-0.2572,-0.2542,-0.2543,0,0,0,0,0,0,-0.2783,-0.2778,-0.2742,-0.2739,-0.2735,-0.2677,-0.2684,-0.2643,-0.2648,-0.268,-0.2649,-0.2649,-0.2621,-0.2616,-0.2598,-0.2559,-0.2556,-0.2577,-0.2575,-0.2574,-0.2573,0,0,0,0,0,0,0,-0.278,-0.283,-0.2764,-0.2737,-0.2734,-0.2684,-0.2683,-0.2681,-0.2648,-0.2648,-0.2649,-0.2649,-0.2591,-0.2588,-0.2586,-0.2561,0,0,-0.2577,-0.2576,0,0,0,0,0,0,0,0,-0.2831,-0.283,-0.2764,-0.2763,-0.2763,-0.2684,-0.2683,-0.2682,-0.2648,-0.2648,-0.2649,-0.2649,-0.259,-0.2588,-0.2586,0,0,0,0,0,0,0,0,0,0,0,0,0,0,0,-0.2764,-0.2763,0,-0.2684,-0.2683,-0.2682,-0.2648,-0.2648,-0.2649,-0.2649,-0.259,-0.2588,-0.2586,0,0,0,0,0,0,0,0,0,0,0,0,0,0,0,0,0,0,0,0,0,0,0,0,0,0,0,0,0,0,0,0,0,0,0,0,0,0,0,0,0,0,0,0,0,0,0,0,0,0,0,0,0,0,0,0,0,0,0,0,0,0,0,0,0,0,0,0,0]}],[{"header":{"parameterUnit":"kt","parameterCategory":2,"dx":1,"dy":1,"la1":30.253999710083008,"la2":30.299108505249023,"lo1":-89.0895004272461,"lo2":-89.04439544677734,"nx":28,"ny":28,"refTime":"2022-10-22T21:00:00:Z","depth":"2","parameterNumber":3,"parameterNumberName":"V-component_of_CURRENTS"},"data":[-0.0949,-0.1139,-0.1223,-0.1435,-0.1521,-0.1598,-0.1596,-0.1511,-0.1349,-0.1106,-0.0832,-0.045,-0.001,0.018,0.0427,0.0588,0.0581,0.0583,0.0676,0.0465,0.0461,0.0647,0.0561,0,0,0,0,0,-0.0859,-0.0959,-0.1129,-0.1334,-0.1437,-0.143,-0.1444,-0.1423,-0.1306,-0.1062,-0.0793,-0.0416,-0.0012,0.0325,0.0631,0.0846,0.0781,0.0855,0.071,0.0706,0.0704,0.0653,0.0733,0.0734,0.0735,0.0736,0,0,-0.0718,-0.0839,-0.1015,-0.1166,-0.1266,-0.1324,-0.1359,-0.1308,-0.1228,-0.1024,-0.0791,-0.0451,-0.0131,0.0394,0.0636,0.0823,0.0831,0.0832,0.0825,0.0819,0.078,0.0747,0.089,0.0891,0.0893,0.0893,0.0894,0,-0.0642,-0.0705,-0.0834,-0.1008,-0.1103,-0.117,-0.1194,-0.1192,-0.1063,-0.0948,-0.0723,-0.0518,-0.0097,0.0222,0.0584,0.0717,0.0718,0.0786,0.0824,0.0572,0.053,0.055,0.054,0.0641,0.0641,0.0641,0.0641,0.0641,-0.0541,-0.0628,-0.0794,-0.0882,-0.0923,-0.0987,-0.1011,-0.0944,-0.0924,-0.0732,-0.0705,-0.0449,-0.0231,0.0182,0.0427,0.0713,0.0707,0.077,0.0723,0.0713,0.0739,0.0723,0.0709,0.0639,0.0639,0.064,0.064,0,-0.0494,-0.0537,-0.0686,-0.0762,-0.0778,-0.0844,-0.085,-0.085,-0.0747,-0.0691,-0.0657,-0.0435,-0.0199,0.002,0.0271,0.0396,0.0595,0.0673,0.0533,0.0559,0.0697,0.0686,0.0849,0.0853,0.0856,0.0859,0.0861,0,-0.0403,-0.0479,-0.0544,-0.061,-0.0703,-0.069,-0.073,-0.069,-0.0607,-0.0573,-0.0427,-0.0352,-0.0146,0.0014,0.0157,0.0387,0.0371,0.052,0.0563,0.0453,0.0449,0.0444,0.0438,0.0486,0.0485,0.0484,0.0483,0,-0.0287,-0.0389,-0.0489,-0.0519,-0.0574,-0.0595,-0.0594,-0.0521,-0.0503,-0.0398,-0.0356,-0.0231,-0.0159,-0.0021,0.0157,0.0138,0.0361,0.0359,0.0509,0.0514,0.0474,0.0474,0.0482,0.0482,0.0481,0.0481,0.0481,0,-0.0198,-0.0255,-0.0364,-0.0472,-0.048,-0.0503,-0.0488,-0.0476,-0.0377,-0.0331,-0.0256,-0.0181,-0.0092,-0.0051,0.0121,0.0076,0.0171,0.025,0.0258,0.0346,0.0377,0.039,0.0424,0.0352,0.0351,0.0349,0.0348,0,-0.0138,-0.0222,-0.022,-0.0321,-0.0388,-0.0336,-0.0335,-0.0301,-0.0251,-0.0214,-0.0129,-0.0103,-0.0059,-0.0042,0.0024,0.0114,0.0174,0.0106,0.0285,0.029,0.0344,0.0386,0.028,0.04,0.0329,0.0331,0.0332,0,-0.0086,-0.0151,-0.0157,-0.0223,-0.0204,-0.0209,-0.0197,-0.0185,-0.0177,-0.0128,-0.0122,-0.0078,-0.003,-0.0012,0.0025,0.0083,0.0146,0.0116,0.0121,0.0167,0.0287,0.0352,0.0371,0.0175,0.0177,0.0178,0.0317,0,-0.0099,-0.0146,-0.0143,-0.0157,-0.0147,-0.0157,-0.0128,-0.0104,-0.0085,-0.0069,-0.0038,0.0009,0.0034,0.005,0.0061,0.0098,0.012,0.014,0.0163,0.0163,0.0225,0.0236,0.0114,0.0115,0.0116,0.0117,0,0,-0.0079,-0.0113,-0.0063,-0.0076,-0.0088,-0.003,-0.0063,-0.0036,-0.002,-0.0013,0.0002,0.0043,0.0074,0.0089,0.0079,0.0102,0.0144,0.0104,0.0156,0.016,0.0164,0.0222,0.0232,0.0118,0.0118,0.0119,0.0119,0,-0.0081,-0.0059,-0.0068,-0.0061,-0.0037,-0.0027,-0.0021,-0.0005,0.0004,0.0008,0.0021,0.0052,0.0079,0.0097,0.0109,0.0109,0.0161,0.0118,0.0096,0.0161,0.0164,0.0167,0.0224,0.0232,0.0121,0.0121,0.0121,0,-0.0069,-0.0059,-0.0061,-0.0045,-0.003,-0.0038,-0.0012,0.0011,-0.0004,0.0034,0.0029,0.0058,0.0087,0.0102,0.0116,0.0128,0.0185,0.0155,0.0151,0.015,0.0219,0.0222,0.0224,0.0194,0.0194,0.0194,0,0,-0.0065,-0.0062,-0.005,-0.0046,-0.0034,-0.002,-0.0006,0.0,0.0016,0.0025,0.0043,0.0066,0.0083,0.0102,0.0124,0.0152,0.0195,0.0161,0.0157,0.0154,0.0151,0.0219,0.0221,0.0194,0.0194,0.0194,0,0,-0.0066,-0.0059,-0.0062,-0.0056,-0.004,-0.0024,-0.0005,-0.0001,0.0018,0.0021,0.0043,0.0052,0.0074,0.0103,0.0097,0.0132,0.015,0.0152,0.0105,0.0102,0.0099,0.0085,0.0118,0,0,0,0,0,-0.0068,-0.0062,-0.0065,-0.0062,-0.0049,-0.0027,-0.0023,-0.0007,-0.0006,0.0005,0.0018,0.0041,0.0098,0.0093,0.0104,0.0106,0.0193,0.0193,0.0193,0.014,0.0135,0.0132,0,0,0,0,0,0,-0.0067,-0.0067,-0.0064,-0.0052,-0.0047,-0.0028,-0.0031,-0.0027,-0.0007,-0.0006,0.0034,0.0042,0.0057,0.009,0.0099,0.01,0.0115,0.0193,0.0193,0.0193,0.0138,0.0135,0.0132,0,0,0,0,0,-0.0066,-0.0066,-0.0054,-0.0051,-0.0047,-0.0024,-0.0032,-0.0028,-0.0013,0.0021,0.0028,-0.0,0.0057,0.0067,0.0096,0.0095,0.0109,0.0112,0.0193,0.0193,0.0193,0.0137,0,0,0,0,0,0,-0.0065,-0.0061,-0.0052,-0.0049,-0.0052,-0.0024,-0.0022,-0.0029,0.0013,0.0019,-0.0013,-0.0012,0.0056,0.0064,0.0072,0.0091,0.0104,0.0107,0.0109,0.0193,0.0193,0.0193,0,0,0,0,0,0,-0.0061,-0.006,-0.005,-0.0053,-0.005,-0.0024,-0.0022,0.0013,0.0014,-0.0023,-0.0022,-0.0013,0.0057,0.0062,0.0069,0.0122,0.01,0.0103,0.0106,0.0107,0.0193,0.0193,0,0,0,0,0,0,-0.0059,-0.0058,-0.0054,-0.0052,-0.005,-0.0017,0.001,0.0028,-0.0006,-0.0025,-0.0006,-0.0006,0.0056,0.0061,0.0066,0.0117,0.012,0.01,0.0102,0.0104,0.0105,0,0,0,0,0,0,0,-0.0058,-0.0078,-0.0066,-0.0051,-0.0049,-0.002,-0.002,-0.0019,-0.0006,-0.0006,-0.0006,-0.0006,0.0082,0.0085,0.0089,0.0112,0,0,0.01,0.0101,0,0,0,0,0,0,0,0,-0.0077,-0.0077,-0.0066,-0.0065,-0.0065,-0.002,-0.002,-0.0019,-0.0006,-0.0006,-0.0006,-0.0006,0.0083,0.0085,0.0088,0,0,0,0,0,0,0,0,0,0,0,0,0,0,0,-0.0066,-0.0065,0,-0.002,-0.002,-0.0019,-0.0006,-0.0006,-0.0006,-0.0006,0.0083,0.0086,0.0088,0,0,0,0,0,0,0,0,0,0,0,0,0,0,0,0,0,0,0,0,0,0,0,0,0,0,0,0,0,0,0,0,0,0,0,0,0,0,0,0,0,0,0,0,0,0,0,0,0,0,0,0,0,0,0,0,0,0,0,0,0,0,0,0,0,0,0,0,0]}]],[[{"header":{"parameterUnit":"kt","parameterCategory":2,"dx":1,"dy":1,"la1":30.253999710083008,"la2":30.299108505249023,"lo1":-89.0895004272461,"lo2":-89.04439544677734,"nx":28,"ny":28,"refTime":"2022-10-22T21:00:00:Z","depth":"4","parameterNumber":2,"parameterNumberName":"U-component_of_CURRENTS"},"data":[-0.0531,-0.0612,-0.0684,-0.0863,-0.0989,-0.1231,-0.1393,-0.1549,-0.1534,-0.172,-0.1674,-0.1809,-0.1741,-0.1876,-0.1691,-0.1697,-0.1718,-0.18,-0.1794,-0.1923,-0.1943,-0.1961,-0.1909,0,0,0,0,0,-0.0594,-0.0604,-0.0769,-0.1,-0.1235,-0.1379,-0.1651,-0.1797,-0.2006,-0.1928,-0.2023,-0.1961,-0.1873,-0.1903,-0.1757,-0.1936,-0.1916,-0.1762,-0.1865,-0.1936,-0.1958,-0.1899,0,0,0,0,0,0,-0.0656,-0.0715,-0.0871,-0.11,-0.1343,-0.1516,-0.1694,-0.1823,-0.1953,-0.2143,-0.2121,-0.2153,-0.2234,-0.2103,-0.2032,-0.1938,-0.1915,-0.1859,-0.1884,-0.1906,-0.1843,-0.1788,-0.1589,0,0,0,0,0,-0.0719,-0.0816,-0.097,-0.1206,-0.1421,-0.1672,-0.1922,-0.1969,-0.2222,-0.2372,-0.2351,-0.2316,-0.2264,-0.2204,-0.2123,-0.2054,-0.2201,-0.2113,-0.2125,-0.2127,-0.2105,-0.2077,-0.2088,-0.2043,-0.2046,-0.2048,-0.2049,0,-0.0791,-0.0854,-0.1195,-0.1322,-0.1492,-0.1761,-0.1928,-0.2208,-0.2302,-0.2489,-0.2495,-0.2526,-0.2547,-0.2334,-0.2354,-0.2246,-0.2213,-0.2172,-0.2174,-0.2142,-0.2107,-0.2112,-0.2116,-0.2067,-0.2065,-0.2064,-0.2063,0,-0.0828,-0.0977,-0.1189,-0.1507,-0.1626,-0.1793,-0.2146,-0.226,-0.242,-0.2524,-0.2555,-0.2648,-0.2605,-0.2593,-0.2547,-0.2453,-0.2364,-0.2296,-0.249,-0.2458,-0.215,-0.2147,-0.2097,-0.209,-0.2084,-0.208,-0.2076,0,-0.0949,-0.1089,-0.1359,-0.144,-0.1674,-0.1897,-0.2115,-0.2281,-0.2444,-0.2532,-0.262,-0.2643,-0.2665,-0.2641,-0.2593,-0.2456,-0.2554,-0.2348,-0.2305,-0.249,-0.2486,-0.2452,-0.2443,-0.2529,-0.253,-0.253,-0.253,0,-0.0979,-0.1247,-0.1391,-0.1484,-0.1783,-0.1931,-0.2103,-0.2291,-0.2414,-0.2542,-0.258,-0.2639,-0.2647,-0.2631,-0.2568,-0.257,-0.2537,-0.2524,-0.2335,-0.2322,-0.2449,-0.244,-0.253,-0.253,-0.253,-0.253,-0.253,0,-0.1094,-0.1214,-0.1378,-0.1688,-0.1758,-0.1879,-0.2135,-0.2265,-0.2411,-0.2479,-0.254,-0.2548,-0.2598,-0.2549,-0.2555,-0.2548,-0.2513,-0.2484,-0.2482,-0.228,-0.2205,-0.2339,-0.2425,-0.2424,-0.2424,-0.2423,-0.2423,0,-0.1104,-0.1247,-0.1386,-0.1576,-0.1688,-0.1862,-0.1992,-0.2141,-0.2241,-0.2343,-0.239,-0.2454,-0.2434,-0.2452,-0.2469,-0.2443,-0.2459,-0.2448,-0.2383,-0.2381,-0.2211,-0.2247,-0.243,-0.2415,-0.2416,-0.2417,-0.2418,0,-0.1098,-0.1329,-0.1349,-0.1485,-0.166,-0.1738,-0.1877,-0.2044,-0.2146,-0.2212,-0.2331,-0.2381,-0.2373,-0.2392,-0.2392,-0.2405,-0.2442,-0.2363,-0.2361,-0.2354,-0.2443,-0.226,-0.2247,-0.2423,-0.2425,-0.2426,-0.2412,0,-0.1232,-0.1345,-0.1361,-0.1535,-0.1615,-0.1685,-0.1836,-0.1913,-0.2007,-0.2078,-0.218,-0.2181,-0.2236,-0.225,-0.225,-0.2318,-0.2288,-0.2259,-0.2222,-0.2284,-0.2267,-0.2271,-0.219,-0.2188,-0.2187,-0.2186,0,0,-0.1235,-0.1354,-0.144,-0.1512,-0.1601,-0.1693,-0.1783,-0.1843,-0.1944,-0.2012,-0.2002,-0.2093,-0.2094,-0.2177,-0.2202,-0.2188,-0.2176,-0.2192,-0.2251,-0.2259,-0.2266,-0.2254,-0.226,-0.2183,-0.2182,-0.2182,-0.2181,0,-0.1297,-0.1388,-0.1437,-0.1515,-0.163,-0.1693,-0.1728,-0.1829,-0.189,-0.1969,-0.199,-0.2023,-0.2058,-0.2082,-0.21,-0.2163,-0.2129,-0.2167,-0.2235,-0.2238,-0.2248,-0.2256,-0.2246,-0.2253,-0.2178,-0.2178,-0.2178,0,-0.1362,-0.1453,-0.1493,-0.1616,-0.1674,-0.1746,-0.1782,-0.1823,-0.1906,-0.1888,-0.1969,-0.197,-0.1981,-0.2017,-0.2034,-0.2015,-0.2081,-0.2062,-0.2069,-0.2075,-0.2075,-0.2086,-0.2096,-0.1965,-0.1964,-0.1964,0,0,-0.1408,-0.1473,-0.1608,-0.1641,-0.1684,-0.1771,-0.1792,-0.1837,-0.188,-0.1892,-0.1919,-0.1941,-0.1967,-0.1981,-0.198,-0.201,-0.1989,-0.2039,-0.2049,-0.2057,-0.2068,-0.207,-0.2081,-0.1962,-0.1962,-0.1962,0,0,-0.1411,-0.1574,-0.1652,-0.1694,-0.177,-0.1828,-0.1815,-0.1875,-0.1896,-0.1904,-0.1919,-0.1921,-0.1961,-0.1943,-0.1924,-0.1982,-0.1937,-0.1941,-0.2005,-0.2017,-0.2027,-0.204,-0.1894,0,0,0,0,0,-0.1572,-0.1567,-0.1639,-0.1664,-0.1774,-0.182,-0.1825,-0.1855,-0.1893,-0.1889,-0.192,-0.1905,-0.1933,-0.1916,-0.1914,-0.1959,-0.1941,-0.1945,-0.1949,-0.2037,-0.205,-0.2061,0,0,0,0,0,0,-0.1583,-0.1615,-0.1638,-0.1709,-0.1733,-0.182,-0.1841,-0.1847,-0.1892,-0.1896,-0.1903,-0.1903,-0.1887,-0.1915,-0.1914,-0.1957,-0.1894,-0.1943,-0.1946,-0.1949,-0.2042,-0.2052,-0.2061,0,0,0,0,0,-0.1591,-0.1617,-0.1803,-0.1705,-0.1726,-0.1777,-0.1841,-0.1847,-0.1877,-0.1877,-0.1879,-0.1907,-0.1887,-0.1887,-0.1914,-0.1959,-0.1895,-0.1895,-0.1945,-0.1947,-0.195,-0.2047,0,0,0,0,0,0,-0.1597,-0.1588,-0.1806,-0.181,-0.1714,-0.1771,-0.1787,-0.1846,-0.1854,-0.186,-0.1877,-0.1878,-0.1886,-0.1887,-0.1887,-0.1962,-0.1895,-0.1895,-0.1895,-0.1947,-0.1949,-0.195,0,0,0,0,0,0,-0.1574,-0.1592,-0.1807,-0.1817,-0.1823,-0.1764,-0.178,-0.1775,-0.1853,-0.185,-0.1855,-0.1877,-0.189,-0.1886,-0.1886,-0.1876,-0.1896,-0.1895,-0.1895,-0.1895,-0.1948,-0.195,0,0,0,0,0,0,-0.1581,-0.1596,-0.1815,-0.182,-0.1824,-0.1869,-0.1757,-0.1864,-0.1878,-0.1847,-0.188,-0.1882,-0.1889,-0.1889,-0.1886,-0.1875,-0.1876,-0.1896,-0.1895,-0.1895,-0.1895,0,0,0,0,0,0,0,-0.1586,-0.1498,-0.1792,-0.1821,-0.1825,-0.1857,-0.1856,-0.1856,-0.1878,-0.1879,-0.188,-0.1881,-0.1897,-0.1897,-0.1896,-0.1874,0,0,-0.1896,-0.1895,0,0,0,0,0,0,0,0,-0.1491,-0.1497,-0.1792,-0.1794,-0.1796,-0.1857,-0.1856,-0.1856,-0.1878,-0.1879,-0.188,-0.1881,-0.1897,-0.1897,-0.1896,0,0,0,0,0,0,0,0,0,0,0,0,0,0,0,-0.1792,-0.1794,0,-0.1857,-0.1856,-0.1856,-0.1878,-0.1879,-0.188,-0.188,-0.1897,-0.1897,-0.1896,0,0,0,0,0,0,0,0,0,0,0,0,0,0,0,0,0,0,0,0,0,0,0,0,0,0,0,0,0,0,0,0,0,0,0,0,0,0,0,0,0,0,0,0,0,0,0,0,0,0,0,0,0,0,0,0,0,0,0,0,0,0,0,0,0,0,0,0,0]}],[{"header":{"parameterUnit":"kt","parameterCategory":2,"dx":1,"dy":1,"la1":30.253999710083008,"la2":30.299108505249023,"lo1":-89.0895004272461,"lo2":-89.04439544677734,"nx":28,"ny":28,"refTime":"2022-10-22T21:00:00:Z","depth":"4","parameterNumber":3,"parameterNumberName":"V-component_of_CURRENTS"},"data":[-0.1268,-0.1326,-0.134,-0.1371,-0.1388,-0.1421,-0.1411,-0.1339,-0.1252,-0.1125,-0.0942,-0.0802,-0.0484,-0.0581,-0.0165,-0.0107,-0.0056,0.0289,0.0292,0.0377,0.0376,0.0376,0.0293,0,0,0,0,0,-0.1269,-0.1302,-0.1335,-0.1331,-0.1374,-0.1385,-0.1359,-0.1311,-0.1208,-0.1102,-0.1006,-0.08,-0.0479,-0.0322,-0.0154,-0.0078,0.0156,0.0118,0.0181,0.0376,0.0376,0.0296,0,0,0,0,0,0,-0.1263,-0.1279,-0.1318,-0.1313,-0.1341,-0.1346,-0.1306,-0.1229,-0.1167,-0.0985,-0.0935,-0.0672,-0.0504,-0.0228,-0.0046,0.0128,0.0155,0.018,0.0189,0.0191,0.0099,0.002,0.0065,0,0,0,0,0,-0.1229,-0.1257,-0.1255,-0.1281,-0.1275,-0.1256,-0.1214,-0.1198,-0.1068,-0.0998,-0.0827,-0.0643,-0.0434,-0.0188,0.0014,0.0183,0.0302,0.0355,0.0355,0.0318,0.0279,0.0292,0.0283,0.0373,0.0373,0.0373,0.0373,0,-0.1194,-0.1215,-0.1199,-0.12,-0.1173,-0.114,-0.1122,-0.1008,-0.0973,-0.0819,-0.0797,-0.0609,-0.0475,-0.0177,0.0013,0.026,0.0285,0.0353,0.0313,0.0277,0.0293,0.0283,0.0273,0.0373,0.0373,0.0373,0.0373,0,-0.1177,-0.1154,-0.1136,-0.1075,-0.1065,-0.1042,-0.0954,-0.0925,-0.0828,-0.0769,-0.0742,-0.0558,-0.038,-0.0192,0.0022,0.0104,0.0255,0.0303,0.0241,0.0261,0.0278,0.0269,0.0372,0.0372,0.0372,0.0372,0.0373,0,-0.1113,-0.1099,-0.1055,-0.1048,-0.1024,-0.092,-0.0885,-0.0796,-0.0705,-0.0662,-0.0533,-0.0478,-0.0292,-0.0162,-0.0038,0.0115,0.0142,0.0202,0.0228,0.0181,0.0173,0.0211,0.0206,0.0253,0.0252,0.0251,0.025,0,-0.1093,-0.1006,-0.1007,-0.0973,-0.0867,-0.0837,-0.0774,-0.0668,-0.0619,-0.0515,-0.0485,-0.036,-0.0304,-0.0182,-0.0037,-0.0048,0.0136,0.014,0.0198,0.0197,0.0204,0.02,0.0249,0.0249,0.0249,0.0248,0.0248,0,-0.1009,-0.0976,-0.0958,-0.0851,-0.0831,-0.0796,-0.0704,-0.0638,-0.0526,-0.0473,-0.04,-0.0339,-0.0244,-0.0223,-0.0061,-0.0101,-0.002,0.0047,0.0053,0.0054,0.0068,0.0103,0.0127,0.0125,0.0124,0.0122,0.0121,0,-0.0995,-0.0955,-0.0881,-0.0833,-0.0801,-0.0693,-0.0647,-0.0551,-0.0483,-0.0422,-0.0335,-0.029,-0.0249,-0.0227,-0.0164,-0.0078,-0.0021,-0.008,0.0069,0.0073,0.0049,0.0069,-0.0016,0.0102,0.0104,0.0106,0.0107,0,-0.097,-0.0872,-0.0864,-0.0816,-0.0703,-0.067,-0.061,-0.0515,-0.0474,-0.0395,-0.0341,-0.0277,-0.0241,-0.0206,-0.0158,-0.0104,-0.0047,-0.0077,-0.0073,-0.0034,0.0073,0.0049,0.0058,-0.0024,-0.0022,-0.0021,0.0094,0,-0.0868,-0.0824,-0.0834,-0.0729,-0.0691,-0.0657,-0.0548,-0.0505,-0.0446,-0.0375,-0.0314,-0.0261,-0.0203,-0.0183,-0.0153,-0.01,-0.0084,-0.0069,-0.0044,-0.0043,0.0007,0.0017,-0.0093,-0.0092,-0.0092,-0.0091,0,0,-0.0834,-0.0777,-0.0714,-0.0674,-0.0633,-0.0535,-0.05,-0.0451,-0.0352,-0.0317,-0.0309,-0.0219,-0.0181,-0.0124,-0.0125,-0.0109,-0.0073,-0.0096,-0.0051,-0.0047,-0.0043,0.0004,0.0013,-0.009,-0.009,-0.0089,-0.0089,0,-0.0768,-0.0724,-0.0714,-0.0653,-0.0563,-0.0507,-0.049,-0.0398,-0.0361,-0.0307,-0.0262,-0.0225,-0.0175,-0.0132,-0.0103,-0.0103,-0.0055,-0.0095,-0.0104,-0.0048,-0.0044,-0.0041,0.0005,0.0013,-0.0088,-0.0088,-0.0088,0,-0.0688,-0.0619,-0.0609,-0.0515,-0.0476,-0.0435,-0.0377,-0.0348,-0.03,-0.0249,-0.0221,-0.0189,-0.0139,-0.0114,-0.0099,-0.0086,-0.0031,-0.0058,-0.0061,-0.0057,0.0002,0.0005,0.0008,-0.0025,-0.0025,-0.0025,0,0,-0.0632,-0.0609,-0.0492,-0.0488,-0.0466,-0.0383,-0.0367,-0.0313,-0.0267,-0.0256,-0.0215,-0.0175,-0.0141,-0.0118,-0.0092,-0.0065,-0.0028,-0.0053,-0.0056,-0.0058,-0.0056,0.0002,0.0005,-0.0025,-0.0025,-0.0025,0,0,-0.0613,-0.0496,-0.0439,-0.0432,-0.0363,-0.0291,-0.0321,-0.026,-0.0237,-0.0237,-0.0182,-0.0171,-0.0147,-0.0118,-0.0123,-0.0078,-0.0063,-0.0061,-0.0099,-0.0102,-0.0104,-0.0111,-0.0089,0,0,0,0,0,-0.0473,-0.0501,-0.0449,-0.0432,-0.0348,-0.0298,-0.0292,-0.0258,-0.0237,-0.0244,-0.0207,-0.018,-0.0113,-0.0117,-0.0107,-0.0099,-0.0025,-0.0025,-0.0025,-0.0067,-0.0071,-0.0074,0,0,0,0,0,0,-0.0466,-0.0445,-0.0448,-0.0371,-0.0352,-0.0298,-0.0267,-0.0259,-0.0236,-0.0233,-0.0188,-0.0178,-0.015,-0.0119,-0.0111,-0.0104,-0.0091,-0.0025,-0.0025,-0.0025,-0.0069,-0.0072,-0.0074,0,0,0,0,0,-0.046,-0.0443,-0.031,-0.0373,-0.0356,-0.0305,-0.0267,-0.026,-0.0249,-0.0195,-0.0186,-0.0222,-0.0152,-0.0142,-0.0114,-0.0109,-0.0097,-0.0094,-0.0025,-0.0025,-0.0025,-0.007,0,0,0,0,0,0,-0.0456,-0.0453,-0.0307,-0.0302,-0.0369,-0.0309,-0.0296,-0.0261,-0.0212,-0.0202,-0.0227,-0.0225,-0.0152,-0.0144,-0.0137,-0.0112,-0.0101,-0.0098,-0.0097,-0.0025,-0.0025,-0.0025,0,0,0,0,0,0,-0.0461,-0.0449,-0.0305,-0.0302,-0.0296,-0.0312,-0.0301,-0.027,-0.0211,-0.0248,-0.0244,-0.0227,-0.0153,-0.0147,-0.0141,-0.0096,-0.0105,-0.0102,-0.01,-0.0099,-0.0025,-0.0025,0,0,0,0,0,0,-0.0456,-0.0445,-0.0304,-0.0299,-0.0295,-0.0238,-0.0286,-0.0199,-0.0216,-0.0251,-0.0215,-0.0214,-0.0155,-0.0149,-0.0143,-0.0102,-0.0098,-0.0105,-0.0103,-0.0101,-0.0101,0,0,0,0,0,0,0,-0.0452,-0.0526,-0.0331,-0.0297,-0.0293,-0.0251,-0.0251,-0.025,-0.0216,-0.0216,-0.0215,-0.0215,-0.0121,-0.0118,-0.0115,-0.0106,0,0,-0.0105,-0.0104,0,0,0,0,0,0,0,0,-0.053,-0.0527,-0.0331,-0.0329,-0.0328,-0.0251,-0.0251,-0.025,-0.0216,-0.0216,-0.0215,-0.0215,-0.0121,-0.0118,-0.0115,0,0,0,0,0,0,0,0,0,0,0,0,0,0,0,-0.033,-0.0329,0,-0.0251,-0.0251,-0.025,-0.0216,-0.0216,-0.0215,-0.0215,-0.012,-0.0118,-0.0116,0,0,0,0,0,0,0,0,0,0,0,0,0,0,0,0,0,0,0,0,0,0,0,0,0,0,0,0,0,0,0,0,0,0,0,0,0,0,0,0,0,0,0,0,0,0,0,0,0,0,0,0,0,0,0,0,0,0,0,0,0,0,0,0,0,0,0,0,0]}]]]